Change the Weather History Date:

Wednesday, September 12, 2012

  Actual Average Record
Temperature  
Mean Temperature 76 °F 79 °F  
Max Temperature 86 °F 89 °F 100 °F (2010)
Min Temperature 65 °F 69 °F 60 °F (2003)
Degree Days  
Heating Degree Days 0    
Month to date heating degree days 0  
Since 1 July heating degree days 0  
Cooling Degree Days 11    
Month to date cooling degree days 166  
Year to date cooling degree days 2374  
Growing Degree Days 26 (Base 50)    
Moisture  
Dew Point 63 °F    
Average Humidity 66    
Maximum Humidity 87    
Minimum Humidity 44    
Precipitation  
Precipitation 0.02 in 0.14 in 0.78 in (2001)
Month to date precipitation 1.93 1.56  
Year to date precipitation 50.99 39.89  
Sea Level Pressure  
Sea Level Pressure 30.17 in    
Wind  
Wind Speed 7 mph (ENE)    
Max Wind Speed 15 mph    
Max Gust Speed 18 mph    
Visibility 10 miles    
Events      
T = Trace of Precipitation, MM = Missing Value Source: NWS Daily Summary

Daily Weather History Graph

Daily Weather History Graph

Search for Another Location

Airport or City:

Trip Planner

Search our weather history database for the weather conditions in past years. The results will help you decide how hot, cold, wet, or windy it might be!

Date:

Astronomy

Sep. 12, 2012 Rise Set
Actual Time 6:23 AM CDT 6:49 PM CDT
Civil Twilight 5:59 AM CDT 7:13 PM CDT
Nautical Twilight 5:30 AM CDT 7:42 PM CDT
Astronomical Twilight 5:02 AM CDT 8:10 PM CDT
Moon 2:51 AM CDT (9/12) 4:27 PM CDT (9/12)
Length of Visible Light 13h 14m
Length of Day
12h 25m
Waning Crescent, 13% of the Moon is Illuminated
Sep 12
Waning Crescent
Sep 15
New
Sep 22
First Quarter
Sep 29
Full
Oct 8
Last Quarter

Hourly Weather History & Observations

Time (CDT) Temp. Heat Index Dew Point Humidity Pressure Visibility Wind Dir Wind Speed Gust Speed Precip Events Conditions
12:53 AM 72.0 °F - 64.0 °F 76% 30.16 in 10.0 mi East 5.8 mph - N/A   Clear
1:53 AM 71.1 °F - 63.0 °F 75% 30.15 in 10.0 mi East 5.8 mph - N/A   Clear
2:53 AM 70.0 °F - 63.0 °F 78% 30.14 in 10.0 mi East 4.6 mph - N/A   Clear
3:53 AM 68.0 °F - 63.0 °F 84% 30.14 in 10.0 mi ENE 5.8 mph - N/A   Clear
4:53 AM 66.9 °F - 63.0 °F 87% 30.15 in 10.0 mi ENE 4.6 mph - N/A   Scattered Clouds
5:53 AM 66.0 °F - 62.1 °F 87% 30.18 in 10.0 mi ENE 3.5 mph - N/A   Partly Cloudy
6:53 AM 66.9 °F - 63.0 °F 87% 30.19 in 10.0 mi ENE 5.8 mph - N/A   Clear
7:53 AM 70.0 °F - 63.0 °F 78% 30.21 in 10.0 mi ENE 8.1 mph - N/A   Partly Cloudy
8:53 AM 73.9 °F - 63.0 °F 68% 30.22 in 10.0 mi East 10.4 mph - N/A   Clear
9:53 AM 78.1 °F - 63.0 °F 60% 30.22 in 10.0 mi ENE 9.2 mph - N/A   Clear
10:53 AM 81.0 °F 81.9 °F 62.1 °F 52% 30.23 in 10.0 mi ENE 11.5 mph - N/A   Clear
11:53 AM 82.9 °F 83.2 °F 60.1 °F 46% 30.21 in 10.0 mi ENE 10.4 mph - N/A   Clear
12:53 PM 82.9 °F 83.3 °F 61.0 °F 47% 30.19 in 10.0 mi ENE 11.5 mph - N/A   Clear
1:53 PM 86.0 °F 86.8 °F 63.0 °F 46% 30.16 in 10.0 mi NE 10.4 mph 16.1 mph N/A   Mostly Cloudy
2:53 PM 84.9 °F 85.0 °F 61.0 °F 44% 30.14 in 10.0 mi East 8.1 mph - N/A   Partly Cloudy
3:53 PM 86.0 °F 86.8 °F 63.0 °F 46% 30.13 in 10.0 mi ENE 10.4 mph - N/A   Mostly Cloudy
4:53 PM 84.9 °F 85.4 °F 62.1 °F 46% 30.12 in 10.0 mi East 9.2 mph - N/A   Partly Cloudy
5:53 PM 82.0 °F 83.1 °F 63.0 °F 52% 30.12 in 10.0 mi ENE 8.1 mph - N/A   Clear
6:53 PM 78.1 °F - 64.9 °F 64% 30.12 in 10.0 mi NE 4.6 mph - N/A   Partly Cloudy
7:53 PM 75.9 °F - 64.9 °F 69% 30.13 in 10.0 mi NE 4.6 mph - N/A   Mostly Cloudy
8:53 PM 75.0 °F - 64.9 °F 71% 30.15 in 10.0 mi NE 4.6 mph - N/A   Mostly Cloudy
9:53 PM 73.9 °F - 70.0 °F 87% 30.16 in 10.0 mi NE 4.6 mph - 0.02 in   Overcast
10:53 PM 73.0 °F - 66.9 °F 81% 30.17 in 10.0 mi ENE 3.5 mph - N/A   Partly Cloudy
11:53 PM 73.0 °F - 66.0 °F 79% 30.17 in 10.0 mi East 5.8 mph - N/A   Clear